{"data":{"norad_id":66423,"intl_designator":"2025-259B","name":"STARLINK-35618","alt_names":[],"object_type":"PAYLOAD","status":"ACTIVE","operator":null,"country":"US","launch_date":"2025-11-11","launch_site_code":"AFETR","launch_vehicle":null,"mission":null,"orbit_class":"UNKNOWN","rcs_meters":null,"size_class":null,"mass_kg":null,"dimensions":null,"purposes":["comms"],"wikipedia_slug":null,"has_3d_model":false,"image_url":null,"decayed_at":null,"tle_current":{"epoch":"2026-09-20T16:44:26.748384Z","epoch_age_seconds":76073,"freshness":"FRESH","line1":"1 66423U 25259B   26263.69753181  .00014520  00000+0  53600-3 0  9991","line2":"2 66423  43.0034 253.1921 0001689 278.5073  81.5588 15.27587197 49310","mean_motion":15.27587197,"eccentricity":0.0001689,"inclination_deg":43.0034,"raan_deg":253.1921,"arg_perigee_deg":278.5073,"mean_anomaly_deg":81.5588,"bstar":0.000536,"rev_number":4931,"period_min":94.266304589878,"perigee_km":481.86869502538,"apogee_km":484.18639640893,"semimajor_km":6861.1645457172,"source":"CELESTRAK","updated_at":"2026-09-21T09:00:35.905920Z"}}}